Location: Turtle Rock Observatory
(36.6913°N, 81.9708°W)
Time: 19:43:45
(UTC-05:00)

Daily predictions for brighter satellites

Satellite Brightness Start Highest point End
(mag) Time Altitude Azimuth Time Altitude Azimuth Time Altitude Azimuth
GPS 2-04 Rocket1 3.8 17:59:51 10° W 18:04:05 50° SSW 18:08:14 10° ESE
Cosmos 990 Rocket 4.3 17:59:12 10° N 18:04:15 45° ENE 18:09:16 10° SE
OTV 4 0.4 18:02:54 10° W 18:05:51 71° N 18:08:47 10° E
Cosmos 2333 Rocket 3.1 18:01:57 10° SSE 18:06:39 28° ESE 18:11:21 10° NE
Cosmos 2221 3.6 18:04:22 10° NNW 18:08:29 49° W 18:12:34 10° SSW
Cosmos 2298 Rocket 4.1 18:06:15 10° NNW 18:11:34 88° WSW 18:16:52 10° SSE
MSX 3.8 18:06:17 10° SSE 18:11:59 78° ENE 18:17:43 10° N
Cosmos 841 Rocket 3.6 18:10:48 10° S 18:15:58 61° ESE 18:21:10 10° NNE
Cosmos 1766 Rocket 4.1 18:12:12 10° SSW 18:16:37 65° W 18:21:04 10° N
Cosmos 2228 Rocket 3.0 18:20:18 10° N 18:24:41 63° E 18:29:04 10° SSE
Cosmos 1937 Rocket 3.6 18:21:17 10° NNW 18:26:29 86° WSW 18:31:42 10° SSE
YAOGAN 1 3.4 18:22:48 10° S 18:27:02 56° W 18:31:19 10° NNW
COSMO-SKYMED 1 2.5 18:22:43 10° NNE 18:27:03 69° ESE 18:31:21 10° S
Cosmos 332 Rocket 3.8 18:22:40 10° S 18:27:24 65° ESE 18:32:13 10° NNE
Cosmos 2219 Rocket 2.3 18:22:41 10° S 18:28:11 57° ESE 18:33:43 10° NNE
SL-14 R/B 4.0 18:28:02 10° SSE 18:31:29 31° E 18:34:58 10° NNE
Cosmos 2278 Rocket 3.2 18:27:32 10° N 18:32:10 25° ENE 18:36:47 10° ESE
BREEZE M DEB (TANK) 3.6 18:31:34 10° NNW 18:32:40 12° N 18:33:07 11° NNE
Aureole 2 Rocket 4.4 18:31:29 10° SE 18:32:51 13° ESE 18:32:51 13° ESE
Cosmos 1908 3.6 18:31:13 10° NNW 18:35:04 68° W 18:38:56 10° S
CENTAUR R/B 2.9 18:29:53 10° SW 18:35:47 63° NW 18:42:29 10° NNE
Cosmos 2084 3.6 18:33:12 10° SSW 18:36:58 44° ESE 18:39:29 18° NE
Milstar 3 3.7 18:31:17 10° WSW 18:37:35 42° S 18:44:27 10° ESE
Cosmos 1484 Rocket 2.9 18:34:21 10° S 18:38:12 81° WSW 18:42:10 10° NNW
CZ-4 R/B 4.0 18:37:02 10° SSW 18:40:11 23° W 18:43:19 10° NW
Cosmos 836 Rocket 4.5 18:35:16 10° S 18:40:24 64° ESE 18:45:36 10° NNE
Cosmos 1844 3.9 18:36:36 10° NNW 18:42:14 52° ENE 18:47:52 10° SE
Cosmos 389 Rocket 4.0 18:39:57 10° NNW 18:43:21 39° W 18:46:40 10° SSW
COSMOS 2428 3.5 18:41:13 10° SW 18:46:47 53° WNW 18:52:23 10° NNE
Cosmos 1674 4.4 18:46:03 10° SW 18:49:32 34° W 18:53:04 10° NNW
Lacrosse 5 rocket 3.5 18:50:53 10° NNE 18:50:59 10° NNE 18:50:59 10° NNE
ALOS 3.2 18:48:53 10° ESE 18:52:39 25° ENE 18:56:25 10° NNE
Cosmos 2237 Rocket 2.2 18:50:18 10° S 18:55:47 58° ESE 19:00:18 16° NNE
Cosmos 2142 Rocket 4.5 18:50:53 10° N 18:57:19 82° E 19:03:40 10° S
Cosmos 44 3.6 18:52:53 10° SSW 18:58:04 55° ESE 19:01:00 24° NE
Hubble Space Telescope 2.8 18:55:28 10° WSW 18:58:44 22° S 19:01:45 11° SE
Cosmos 371 Rocket 3.3 18:54:01 10° SSW 18:58:49 82° WNW 19:03:39 10° NNE
SL-16 R/B 3.2 18:54:36 10° SSE 18:59:03 24° ESE 18:59:32 24° E
Abrixas 4.2 18:57:16 10° S 18:59:05 19° SSE 18:59:05 19° SSE
FREGAT/IRIS 4.5 18:56:44 10° SSE 18:57:43 18° SE 18:57:43 18° SE
Elektron 3 4.5 18:57:05 10° NW 19:01:31 64° WSW 19:04:24 10° SSE
Lacrosse 5 4.3 19:02:15 10° NW 19:04:08 12° NNW 19:06:01 10° N
Abrixas rocket 2.7 19:00:59 10° WNW 19:04:16 58° SW 19:06:06 23° SSE
Cosmos 1300 2.5 19:01:28 10° N 19:05:19 78° E 19:09:09 10° S
Meteor 1-11 4.1 19:03:06 10° S 19:08:43 73° E 19:14:26 10° NNE
Cosmos 2058 2.7 19:08:34 10° S 19:12:41 81° E 19:15:32 19° N
NOAA 12 4.0 19:08:16 10° SSE 19:13:29 89° WSW 19:18:46 10° NNW
Cosmos 1634 Rocket 4.4 19:09:39 10° NNW 19:15:47 65° W 19:21:51 10° S
Cosmos 44 Rocket 3.8 19:11:56 10° SW 19:17:02 61° WNW 19:20:28 20° NNE
Cosmos 372 Rocket 4.0 19:13:10 10° N 19:18:09 52° ENE 19:21:04 24° SE
Cosmos 1726 2.5 19:15:24 10° NNW 19:19:07 64° W 19:22:50 10° S
Cosmos 1805 Rocket 3.6 19:15:15 10° S 19:19:35 55° E 19:20:12 50° ENE
SJ-6B 2.8 19:17:31 10° SSE 19:21:31 85° WSW 19:25:38 10° NNW
Cosmos 783 Rocket 4.4 19:18:18 10° SSW 19:23:36 83° ESE 19:26:39 26° NNE
FengYun 1-2 T 4.2 19:19:20 10° SSE 19:24:48 59° ENE 19:30:15 10° N
Cosmos 2151 3.9 19:23:38 10° SSW 19:27:41 46° W 19:31:45 10° N
Cosmos 540 Rocket 3.9 19:27:03 10° SSW 19:32:09 61° WNW 19:35:55 18° N
Cosmos 1151 Rocket 4.2 19:29:00 10° NNW 19:33:02 42° W 19:37:04 10° SSW
USA 215 3.5 19:26:41 10° SE 19:33:11 69° SW 19:39:44 10° NW
Cosmos 1844 Rocket 4.0 19:29:52 10° NW 19:35:07 40° WSW 19:40:19 10° S
Atlas Centaur 2 3.5 19:34:00 10° WSW 19:37:00 18° SSW 19:38:32 15° S
Cosmos 1125 Rocket 3.8 19:33:30 10° NNW 19:38:39 67° WSW 19:43:47 10° S
OAO 3 Rocket 4.2 19:34:58 10° W 19:39:29 39° SSW 19:40:41 33° SSE
BREEZE-M DEB (TANK) 4.4 19:38:14 10° WNW 19:38:42 12° NW 19:38:42 12° NW
OTV 4 2.9 19:39:03 10° WNW 19:40:16 22° WNW 19:40:16 22° WNW
Resurs 01 Rocket 3.4 19:45:27 21° N 19:45:27 21° N 19:46:57 10° N
Cosmos 1980 4.4 19:37:06 10° SW 19:42:37 51° WNW 19:46:34 19° N
OAO 1 Rocket 4.3 19:37:35 10° W 19:42:53 76° S 19:43:21 70° SE
SEDSat Delta rocket 4.5 19:39:00 10° W 19:43:36 32° SSW 19:44:40 28° S
Cosmos 1703 4.1 19:41:14 10° SSW 19:44:03 45° SSW 19:44:03 45° SSW
H-2A ROCKET BODY 3.3 19:26:52 10° WSW 19:47:05 48° S 19:49:07 37° SE
Spot 2 Rocket 3.3 19:42:24 10° SSE 19:47:27 86° E 19:52:32 10° NNW
Cosmos 304 Rocket 3.7 19:44:48 10° SSW 19:49:17 78° SSW 19:49:17 78° SSW
Cosmos 2333 Rocket 3.5 19:45:33 10° SW 19:50:42 36° WNW 19:54:54 15° N
Cosmos 1340 Rocket 4.0 19:49:57 10° SSW 19:53:41 40° WNW 19:54:03 39° WNW
FENGYUN 3A 3.8 19:56:03 10° S 20:01:22 69° WSW 20:06:44 10° NNW
Cosmos 2219 Rocket 4.5 20:08:33 10° W 20:12:31 19° NW 20:16:30 10° N
Cosmos 2278 Rocket 3.3 20:11:04 10° NW 20:16:23 42° WSW 20:21:41 10° S
ALOS 4.1 20:25:54 10° SSW 20:29:56 29° W 20:34:00 10° NW
Cosmos 2237 Rocket 4.4 20:36:20 10° W 20:40:14 19° NW 20:42:11 16° NNW
SL-16 R/B 3.6 20:37:35 10° SW 20:41:29 35° W 20:41:29 35° W
